Location: Newark
(33.6333°S, 78.8500°W)
Time: 03:32:58
(UTC+00:00)

Vanguard 1 - Pass Details

Date: 23 September 2019
Orbit: 653 x 3830 km, 34.2° (Epoch: 22 October)

Event Time Altitude Azimuth Distance (km) Brightness Sun altitude
Rises 02:42:04 0° 265° (W) 4,776 14.2 -42.1°
Reaches altitude 10° 02:45:22 10° 277° (W) 4,183 13.6 -42.6°
Maximum altitude 02:54:53 28° 329° (NNW) 3,940 12.9 -44.2°
Enters shadow 02:55:22 28° 332° (NNW) 3,988 12.9 -44.2°
